Theta_e
291 293 293 291 291 291 288 290 286 289 291 295 298 298 299 299 302 303 303 304 303 303 303 303 305 305 305 305 305 305 305 304 304 305 307 307 308 309 311 312 313 315 317 317
288 292 292 290 293 293 293 293 292 292 292 298 299 300 299 299 301 302 300 301 301 302 302 302 302 303 304 304 303 305 304 303 305 306 307 306 306 306 306 308 310 313 316 315
282 290 289 283 290 292 294 296 294 288 293 297 297 297 296 297 298 298 299 299 299 299 299 299 299 301 300 302 303 303 302 304 305 304 304 303 303 303 302 302 304 308 313 313
283 285 277 289 297 298 295 296 298 298 298 300 300 298 298 298 296 297 298 299 298 297 298 298 299 299 300 301 301 301 301 302 303 303 303 303 302 301 301 302 303 304 306 312
280 279 286 290 296 295 293 292 298 297 297 298 298 296 295 300 299 296 297 297 297 299 299 298 298 299 299 300 300 301 301 301 302 303 302 302 301 300 300 301 301 304 306 309
282 279 278 290 299 300 298 285 298 298 296 295 295 289 293 297 298 298 297 297 297 298 299 297 297 298 297 297 297 297 298 301 303 303 303 302 302 301 301 301 301 303 303 306
285 283 285 297 300 301 287 287 297 297 295 295 292 293 295 298 297 297 297 297 298 298 295 296 297 297 295 295 294 296 299 299 300 302 303 302 302 301 301 300 301 302 302 305
286 282 280 300 299 292 296 298 298 297 296 295 294 295 296 297 296 296 296 297 296 296 296 296 297 296 295 294 295 296 294 296 298 300 301 302 301 300 300 301 302 301 300 302
290 288 298 300 297 300 299 298 297 296 299 295 294 294 296 296 296 296 295 296 297 296 295 296 295 295 292 292 293 293 294 293 296 297 299 299 298 298 298 301 301 300 300 300
292 295 296 298 300 300 301 300 299 297 295 296 294 295 296 296 295 294 295 296 296 295 294 292 292 292 292 292 292 291 291 291 292 293 294 295 297 298 298 299 299 299 299 299
290 295 297 298 299 300 300 300 299 298 297 296 296 296 295 294 294 295 295 295 294 292 291 290 290 290 290 290 290 289 289 290 290 291 292 294 295 296 298 300 300 300 300 300
287 295 295 296 299 301 299 298 297 297 296 297 296 295 294 294 294 294 293 292 292 290 289 289 288 287 288 289 289 289 288 289 289 290 291 292 292 293 295 295 295 294 293 296
294 298 297 297 300 300 301 298 299 297 297 295 297 295 295 293 293 294 291 291 289 288 287 287 286 286 287 289 289 288 288 288 289 290 290 290 290 291 290 294 294 293 293 293
300 299 295 299 297 301 299 299 299 297 297 297 297 296 293 292 292 290 290 289 288 286 285 285 285 285 288 289 288 287 286 288 288 288 289 290 291 291 291 291 291 294 293 293
298 299 299 299 299 298 298 297 295 294 296 296 297 293 292 290 289 289 289 288 286 285 284 284 284 285 287 286 285 285 285 286 287 287 288 289 290 290 291 291 292 293 295 293
299 299 297 295 296 296 296 295 293 294 295 295 293 291 291 290 289 289 288 286 283 282 283 283 284 284 285 284 285 285 287 287 287 287 287 289 289 289 290 291 291 293 293 293
294 292 293 293 294 295 295 295 295 294 295 294 291 291 290 289 288 286 286 285 284 283 283 283 282 283 284 285 286 287 288 289 288 289 289 289 289 289 290 290 290 291 292 294
295 295 294 295 294 294 294 296 295 295 296 293 292 291 289 287 285 285 285 284 283 282 282 282 282 284 285 286 286 288 290 292 293 293 294 292 292 292 291 290 290 291 293 294
296 296 296 297 296 295 295 294 295 297 294 293 291 289 288 287 286 285 284 282 281 279 280 281 283 284 284 285 287 289 297 304 300 300 302 298 298 298 296 292 292 293 294 294
296 296 296 297 297 296 295 296 296 295 294 292 291 289 287 286 286 285 283 280 281 280 281 281 283 282 282 285 287 294 300 301 303 304 305 303 301 298 295 292 294 294 295 295
295 296 296 296 295 297 297 296 295 293 293 292 289 287 286 286 285 284 280 279 280 281 281 282 282 281 282 284 289 293 296 299 299 300 301 302 302 301 300 297 297 296 297 297
295 296 295 295 295 295 295 295 293 293 292 292 289 289 287 285 284 283 282 279 280 280 280 280 280 280 282 285 288 290 292 293 295 297 297 299 299 301 301 301 299 299 299 299
295 298 296 296 295 295 295 294 293 292 291 291 288 288 286 285 284 281 278 281 280 280 279 280 280 280 282 285 286 288 288 289 290 292 293 294 296 297 298 299 302 300 300 301
295 298 296 296 296 294 292 293 292 292 291 291 289 289 287 285 284 285 283 281 280 279 279 279 279 280 282 283 284 285 286 286 287 288 289 289 291 292 293 294 296 301 303 302
295 297 295 294 292 291 292 292 291 290 290 289 288 289 289 288 284 284 284 282 280 279 279 279 279 280 281 281 282 282 283 284 285 286 286 287 287 288 289 290 290 292 295 299
294 293 293 294 293 292 292 291 290 289 289 287 288 288 289 287 286 285 283 282 281 279 279 279 278 278 279 280 280 281 281 282 283 284 284 285 285 286 286 286 287 288 289 291
293 293 291 291 292 293 292 290 290 289 288 288 286 287 288 286 285 284 283 282 281 280 279 279 278 278 278 278 279 280 280 281 281 282 283 284 284 284 284 285 285 285 286 287
Wind_Speed
8 12 14 15 16 16 16 13 11 17 16 17 14 5 4 3 6 5 6 7 7 6 8 8 7 7 7 5 5 3 5 6 7 7 7 7 7 7 7 6 8 11 7 6
10 13 14 18 17 15 18 18 20 18 14 9 5 8 10 7 5 5 8 10 11 11 11 9 8 9 10 7 6 7 7 7 7 6 6 6 5 5 6 7 8 8 8 6
5 8 14 12 14 13 7 12 2 4 3 10 9 8 5 7 8 7 8 7 6 7 8 9 8 6 6 6 6 7 7 9 8 7 8 7 7 6 6 7 8 13 12 6
5 7 5 7 10 2 6 12 13 4 5 6 4 7 7 7 6 7 7 5 7 7 8 8 5 7 8 8 8 9 12 14 14 13 13 13 11 9 9 10 9 11 13 12
3 3 11 12 5 5 3 3 2 8 7 7 8 6 5 11 10 6 7 6 7 10 11 7 6 5 6 8 10 12 17 18 15 14 16 15 14 12 10 11 12 10 8 13
3 3 4 2 8 9 3 2 5 5 6 8 9 7 7 8 8 9 8 7 10 12 15 9 5 6 10 13 16 19 22 20 16 18 17 16 13 11 10 11 14 12 12 10
6 4 7 6 8 5 0 1 6 5 5 7 4 4 8 9 9 8 10 13 15 13 5 5 7 12 17 19 18 20 16 15 18 16 14 13 13 12 12 13 15 11 10 11
5 5 7 3 5 0 3 5 5 5 6 6 6 8 8 11 13 13 13 13 8 12 11 8 14 16 20 19 18 17 19 20 17 16 13 13 14 13 14 15 15 12 10 11
3 4 6 5 3 3 4 5 4 7 4 6 7 7 11 13 12 13 11 13 12 13 14 17 17 18 17 19 18 18 17 18 14 13 13 12 13 14 13 14 12 10 8 9
5 5 7 7 7 6 9 5 7 5 5 7 7 11 13 11 12 14 14 14 13 16 18 21 17 17 16 17 17 17 18 16 15 15 15 15 11 11 12 11 11 10 10 9
11 3 4 5 2 5 9 8 7 6 6 7 9 11 8 11 15 12 13 15 15 15 20 21 17 17 16 17 16 16 15 14 14 13 13 12 11 10 11 13 11 11 9 8
4 3 7 11 4 5 7 5 6 6 7 7 7 10 10 14 9 12 17 17 14 19 19 19 19 18 17 16 15 15 14 12 11 10 9 10 10 10 15 18 12 12 11 9
6 6 4 6 6 7 4 6 7 7 7 10 12 8 9 9 12 19 16 15 17 20 20 19 18 18 16 15 15 15 14 13 10 12 10 10 10 10 10 9 17 18 18 16
4 1 4 4 7 9 5 6 8 8 9 10 10 9 10 11 15 16 17 16 18 18 19 18 18 18 16 15 15 16 14 22 12 11 11 10 9 10 9 10 10 9 14 17
3 3 6 6 5 7 7 7 9 10 10 11 10 9 11 15 15 16 16 17 17 17 17 19 18 17 16 16 16 16 13 11 10 9 10 11 9 10 10 10 10 10 8 8
6 7 8 8 7 7 7 7 7 9 12 13 8 10 12 14 15 16 15 15 17 18 19 19 18 18 19 17 18 14 12 18 16 10 9 9 9 10 10 10 10 8 8 9
4 6 6 5 6 7 7 7 8 11 12 8 8 10 14 15 16 17 18 17 15 16 16 16 19 20 19 18 17 12 10 10 10 8 8 9 9 10 9 9 9 9 9 8
7 6 6 6 6 6 6 7 9 12 8 6 8 11 13 14 17 18 18 19 16 14 13 15 18 21 19 17 15 13 11 9 7 7 7 8 8 8 8 9 9 9 7 8
6 6 7 8 8 6 6 8 10 8 6 6 9 10 10 13 16 17 17 18 16 18 18 20 29 22 18 21 20 12 10 7 5 5 4 3 1 2 3 7 7 7 7 7
8 8 9 10 9 6 7 9 6 7 7 6 7 10 12 14 15 16 17 15 12 13 20 21 20 17 19 20 24 11 11 11 10 9 6 5 3 3 4 4 5 6 6 7
7 7 10 8 6 7 7 6 8 8 8 7 7 10 12 14 14 15 15 12 17 18 21 23 16 14 13 17 14 11 11 10 10 9 9 9 5 5 4 4 4 4 5 6
6 5 5 4 6 6 5 7 8 8 10 7 8 10 12 14 13 14 12 12 13 21 16 12 13 21 16 18 11 11 11 11 10 10 10 9 9 7 5 5 5 5 4 3
5 4 3 6 5 5 6 8 8 10 11 6 10 9 9 8 9 12 14 16 12 17 12 12 20 23 20 11 11 11 12 12 11 10 10 9 9 8 8 6 3 3 3 3
5 4 5 6 6 6 6 6 7 10 12 8 11 9 7 9 10 8 8 14 18 18 13 15 18 21 17 11 11 11 11 11 11 10 10 12 10 9 9 9 8 7 4 2
5 4 6 6 5 4 6 6 6 8 11 7 11 11 10 9 10 10 10 11 17 15 13 18 20 20 12 12 12 12 11 11 11 10 10 10 10 9 9 9 9 8 7 7
5 4 4 6 4 4 4 5 6 6 8 9 8 10 8 9 10 11 11 13 12 15 12 12 13 13 12 13 13 13 12 12 12 11 11 10 10 9 9 9 9 9 8 7
5 7 5 5 4 5 4 5 7 6 8 9 10 10 9 10 11 13 15 13 12 13 12 12 12 15 12 13 13 13 12 12 15 12 11 11 10 10 10 9 8 8 7 9
Wind_Direction
270 282 287 283 275 269 263 236 213 266 253 256 271 282 173 128 38 347 282 274 314 323 337 355 11 5 354 347 345 340 322 309 279 257 244 248 250 250 254 254 274 283 269 234
289 282 281 278 287 286 271 271 265 265 269 42 45 57 42 12 347 316 27 16 3 352 348 345 343 335 329 324 335 331 309 287 282 294 297 288 292 290 293 290 277 271 264 244
260 327 318 293 250 256 278 336 356 40 8 33 12 33 9 345 16 27 3 354 341 329 313 300 290 292 306 302 304 301 295 295 299 298 292 276 265 268 282 289 297 299 283 224
276 301 245 242 333 66 91 56 348 19 96 103 306 322 339 54 31 343 323 310 300 286 285 275 267 284 283 288 284 280 280 276 273 271 265 268 269 273 280 285 288 283 286 271
236 229 289 295 20 11 18 106 294 0 348 356 344 321 279 18 355 322 300 286 289 296 291 286 290 314 333 319 308 303 295 286 280 272 270 267 264 264 269 275 275 267 269 270
204 225 262 107 24 25 5 235 358 0 338 344 342 339 315 335 325 322 336 328 321 307 295 291 346 358 323 305 298 292 284 277 283 272 263 259 260 262 266 270 269 263 267 286
218 239 274 26 345 86 311 274 289 324 341 308 303 246 293 331 338 322 319 314 302 306 344 323 313 309 298 296 288 287 282 291 284 280 274 260 259 260 261 262 264 253 255 263
223 219 248 14 348 353 230 294 311 331 305 321 320 319 326 323 317 312 309 315 334 323 310 307 309 307 293 289 292 290 292 278 271 269 265 264 258 261 261 259 254 252 259 263
214 226 219 243 199 286 269 272 322 299 320 332 329 327 321 310 313 313 319 317 318 318 313 308 310 300 294 292 290 286 282 284 280 283 266 259 263 264 261 252 245 241 238 247
347 305 12 16 56 11 320 305 313 327 342 354 334 321 310 313 322 320 318 326 324 315 308 303 304 299 288 289 286 284 281 275 273 267 265 258 252 249 246 241 239 239 238 234
290 317 333 85 69 302 295 310 305 351 5 335 310 309 310 325 318 327 330 321 317 316 307 303 305 301 294 291 289 285 281 276 271 265 260 262 251 253 255 243 237 236 234 233
238 325 284 276 267 298 280 292 354 1 331 319 327 315 328 319 341 329 321 322 321 312 306 309 306 302 301 297 290 283 279 274 267 265 261 257 258 259 253 246 235 235 247 257
222 236 228 295 304 287 330 15 11 346 351 334 326 322 331 338 332 325 321 319 318 313 310 309 305 300 302 299 295 285 278 276 272 264 250 246 247 248 251 255 243 240 234 240
214 252 315 327 298 306 34 18 13 3 340 323 321 340 353 333 324 324 321 321 314 313 311 307 306 306 306 304 304 293 284 280 271 263 259 253 242 243 233 236 236 238 228 230
348 293 250 274 335 14 34 27 7 337 320 325 331 6 345 329 326 326 326 318 315 313 312 311 309 308 313 308 298 292 288 276 266 257 256 250 245 236 238 236 235 230 220 205
345 338 4 355 0 2 17 4 345 340 329 320 16 350 334 331 328 323 326 323 323 320 317 316 313 316 313 309 304 296 285 272 261 257 253 247 236 235 233 226 228 231 211 211
8 341 349 350 352 20 20 15 341 321 314 20 353 336 337 336 330 329 328 327 322 312 310 314 316 316 316 312 309 300 295 286 265 247 245 240 234 231 225 217 221 216 220 204
28 355 334 42 31 15 11 349 325 315 348 3 342 341 338 339 336 329 327 328 322 318 323 323 320 321 317 317 314 305 292 277 267 256 248 240 237 230 215 205 202 207 202 198
326 14 33 38 43 34 341 321 315 325 22 357 345 344 340 340 332 331 331 330 330 333 334 330 327 329 325 322 329 317 309 329 282 264 287 310 78 331 177 173 186 187 185 176
30 26 28 44 23 350 314 309 340 25 1 353 350 347 345 340 334 333 336 332 337 329 328 325 331 333 331 327 331 330 343 353 358 5 2 17 51 58 92 129 159 166 174 164
22 25 48 31 332 312 320 347 28 3 349 357 17 352 353 335 337 339 339 337 341 338 334 332 340 338 332 332 334 346 353 3 2 359 6 7 32 37 69 145 139 152 162 161
352 59 50 325 302 327 14 31 23 3 0 19 5 356 352 343 343 349 350 345 332 338 336 340 343 340 336 338 346 355 1 4 7 5 4 7 12 20 54 58 84 114 126 140
352 46 31 334 2 40 22 55 16 12 2 49 9 1 8 339 342 348 350 347 343 340 341 347 344 344 346 356 356 360 6 10 7 7 3 1 7 10 16 28 73 107 114 133
343 11 40 6 23 35 34 42 16 24 2 45 15 359 21 355 356 357 338 341 345 351 351 350 350 350 357 2 2 6 8 7 9 7 3 3 8 9 12 9 20 42 54 78
340 59 40 27 26 27 34 45 15 27 12 21 18 2 31 19 9 351 348 350 356 356 357 357 359 360 6 6 9 9 12 8 7 9 10 10 9 10 8 11 13 13 21 22
29 61 26 25 32 28 42 46 23 39 20 16 17 7 23 17 13 8 1 0 6 3 3 1 3 7 7 8 11 12 10 10 12 13 13 10 14 14 14 12 13 14 12 11
60 72 31 358 28 12 54 65 34 48 32 31 18 9 10 21 18 13 11 8 10 13 9 7 9 11 8 12 15 15 13 12 15 13 13 12 15 18 20 13 13 15 22 19